Fremont, MI

3:53 PM EDT on August 19, 2019 (GMT -0400)
Fremont

Weather History for KFFX - May, 2019

Change the Weather History Date:

Thursday, May 30, 2019

  Actual Average (KMKG) Record (KMKG)
Temperature  
Mean Temperature 60 °F -  
Max Temperature 70 °F 70 °F 90 °F (2018)
Min Temperature 51 °F 50 °F 33 °F (1945)
Degree Days  
Heating Degree Days 4    
Growing Degree Days 10 (Base 50)    
Moisture  
Dew Point 54 °F    
Average Humidity 87    
Maximum Humidity 100    
Minimum Humidity 53    
Precipitation  
Precipitation 0.00 in - - ()
Sea Level Pressure  
Sea Level Pressure 29.76 in    
Wind  
Wind Speed 2 mph ()    
Max Wind Speed 15 mph    
Max Gust Speed 18 mph    
Visibility 8.9 miles    
Events Rain    
Averages and records for this station are not official NWS values.
T = Trace of Precipitation, MM = Missing Value Source: Averaged Metar Reports

Daily Weather History Graph

Daily Weather History Graph

Search for Another Location

Airport or City:

Astronomy

May. 30, 2019 Rise Set
Actual Time 6:07 AM EDT 9:16 PM EDT
Civil Twilight 5:32 AM EDT 9:50 PM EDT
Nautical Twilight 4:48 AM EDT 10:35 PM EDT
Astronomical Twilight 3:54 AM EDT 11:29 PM EDT
Moon 4:22 AM EDT (5/30) 5:14 PM EDT (5/30)
Length of Visible Light 16h 18m
Length of Day
15h 08m
Waning Crescent, 15% of the Moon is Illuminated
May 30
Waning Crescent
Jun 3
New
Jun 10
First Quarter
Jun 17
Full
Jun 25
Last Quarter

Hourly Weather History & Observations

Time (EDT) Temp. Dew Point Humidity Pressure Visibility Wind Dir Wind Speed Gust Speed Precip Events Conditions
12:15 AM 53.2 °F 52.7 °F 98% 29.78 in 10.0 mi Calm Calm - N/A   Clear
12:16 AM 53.2 °F 52.7 °F 98% 29.78 in 10.0 mi Calm Calm - N/A   Clear
12:35 AM 52.7 °F 52.3 °F 99% 29.78 in 10.0 mi Calm Calm - N/A   Clear
12:36 AM 52.7 °F 52.3 °F 99% 29.78 in 10.0 mi Calm Calm - N/A   Clear
12:55 AM 52.2 °F 52.0 °F 99% 29.78 in 10.0 mi Calm Calm - N/A   Clear
1:15 AM 52.3 °F 52.2 °F 99% 29.78 in 10.0 mi Calm Calm - N/A   Clear
1:35 AM 52.0 °F 52.0 °F 100% 29.76 in 10.0 mi Calm Calm - N/A   Clear
1:36 AM 52.2 °F 52.2 °F 100% 29.76 in 10.0 mi Calm Calm - N/A   Clear
1:55 AM 51.8 °F 51.8 °F 100% 29.76 in 10.0 mi Calm Calm - N/A   Clear
2:15 AM 51.4 °F 51.4 °F 100% 29.76 in 7.0 mi Calm Calm - N/A   Clear
2:35 AM 51.1 °F 51.1 °F 100% 29.75 in 5.0 mi Calm Calm - N/A   Clear
2:36 AM 51.1 °F 51.1 °F 100% 29.75 in 5.0 mi Calm Calm - N/A   Clear
2:55 AM 51.3 °F 51.3 °F 100% 29.76 in 10.0 mi Calm Calm - N/A   Clear
3:15 AM 51.3 °F 51.3 °F 100% 29.77 in 7.0 mi Calm Calm - N/A   Clear
3:35 AM 51.3 °F 51.3 °F 100% 29.77 in 7.0 mi Calm Calm - N/A   Clear
3:36 AM 51.1 °F 51.1 °F 100% 29.77 in 7.0 mi Calm Calm - N/A   Clear
3:55 AM 51.4 °F 51.4 °F 100% 29.75 in 7.0 mi Calm Calm - N/A   Clear
4:15 AM 51.3 °F 51.3 °F 100% 29.74 in 7.0 mi Calm Calm - N/A   Clear
4:35 AM 51.8 °F 51.8 °F 100% 29.74 in 7.0 mi Calm Calm - N/A   Clear
4:36 AM 51.6 °F 51.6 °F 100% 29.74 in 7.0 mi Calm Calm - N/A   Clear
4:55 AM 51.6 °F 51.6 °F 100% 29.73 in 7.0 mi East 3.5 mph - N/A   Clear
5:15 AM 51.8 °F 51.8 °F 100% 29.73 in 7.0 mi Calm Calm - N/A   Clear
5:35 AM 52.0 °F 52.0 °F 100% 29.73 in 7.0 mi Calm Calm - N/A   Clear
5:36 AM 52.0 °F 52.0 °F 100% 29.73 in 7.0 mi Calm Calm - N/A   Clear
5:55 AM 52.2 °F 52.2 °F 100% 29.73 in 7.0 mi Calm Calm - N/A   Clear
6:15 AM 52.3 °F 52.3 °F 100% 29.72 in 7.0 mi Calm Calm - N/A   Clear
6:35 AM 52.7 °F 52.7 °F 100% 29.73 in 5.0 mi Calm Calm - N/A   Clear
6:55 AM 52.7 °F 52.7 °F 100% 29.74 in 7.0 mi South 5.8 mph - N/A   Clear
6:56 AM 52.7 °F 52.7 °F 100% 29.74 in 7.0 mi SSW 5.8 mph - N/A   Clear
7:15 AM 52.9 °F 52.9 °F 100% 29.75 in 7.0 mi SW 5.8 mph - N/A   Mostly Cloudy
7:35 AM 53.6 °F 53.6 °F 100% 29.76 in 10.0 mi WSW 6.9 mph - N/A   Overcast
7:55 AM 54.1 °F 53.8 °F 99% 29.75 in 10.0 mi West 3.5 mph - N/A   Overcast
7:56 AM 54.1 °F 53.8 °F 99% 29.75 in 10.0 mi Calm Calm - N/A   Overcast
8:15 AM 54.5 °F 54.5 °F 100% 29.76 in 7.0 mi Calm Calm - N/A   Overcast
8:16 AM 54.5 °F 54.5 °F 100% 29.76 in 7.0 mi Calm Calm - N/A   Overcast
8:35 AM 54.7 °F 54.5 °F 99% 29.76 in 7.0 mi Calm Calm - N/A   Overcast
8:55 AM 55.0 °F 54.9 °F 99% 29.75 in 5.0 mi Calm Calm - N/A   Overcast
9:15 AM 55.4 °F 55.4 °F 100% 29.74 in 5.0 mi South 3.5 mph - N/A Rain Light Rain
9:35 AM 56.3 °F 55.8 °F 98% 29.73 in 7.0 mi Calm Calm - N/A   Overcast
9:36 AM 56.3 °F 55.9 °F 99% 29.73 in 7.0 mi Calm Calm - N/A   Overcast
9:55 AM 57.0 °F 56.3 °F 97% 29.73 in 10.0 mi Calm Calm - N/A   Overcast
10:15 AM 57.2 °F 56.3 °F 97% 29.73 in 10.0 mi Calm Calm - N/A   Mostly Cloudy
10:35 AM 57.7 °F 56.8 °F 97% 29.73 in 7.0 mi Calm Calm - N/A   Drizzle
10:36 AM 57.7 °F 56.7 °F 96% 29.73 in 7.0 mi Calm Calm - N/A Rain Rain
10:55 AM 58.1 °F 57.2 °F 97% 29.73 in 7.0 mi North 3.5 mph - N/A Rain Rain
11:15 AM 58.5 °F 58.1 °F 99% 29.73 in 7.0 mi NNW 3.5 mph - N/A Rain Light Rain
11:35 AM 59.7 °F 58.6 °F 96% 29.74 in 10.0 mi Calm Calm - N/A   Scattered Clouds
11:55 AM 61.7 °F 59.2 °F 91% 29.75 in 10.0 mi WSW 4.6 mph - N/A   Mostly Cloudy
11:56 AM 61.7 °F 59.4 °F 92% 29.75 in 10.0 mi SW 4.6 mph - N/A   Mostly Cloudy
12:15 PM 61.7 °F 58.6 °F 90% 29.77 in 10.0 mi WSW 12.7 mph 17.3 mph N/A   Overcast
12:35 PM 62.1 °F 59.2 °F 90% 29.76 in 10.0 mi WSW 12.7 mph 18.4 mph N/A   Overcast
12:55 PM 60.4 °F 56.1 °F 86% 29.77 in 10.0 mi SW 15.0 mph - N/A   Overcast
12:56 PM 60.3 °F 55.9 °F 86% 29.77 in 10.0 mi SW 15.0 mph - N/A   Overcast
1:15 PM 60.8 °F 56.5 °F 86% 29.77 in 10.0 mi SW 6.9 mph - N/A   Overcast
1:16 PM 60.8 °F 56.7 °F 86% 29.77 in 10.0 mi SW 6.9 mph - N/A   Overcast
1:35 PM 60.4 °F 55.9 °F 85% 29.77 in 10.0 mi WSW 9.2 mph 16.1 mph N/A   Overcast
1:55 PM 60.8 °F 55.0 °F 81% 29.77 in 10.0 mi West 5.8 mph - N/A   Overcast
2:15 PM 61.5 °F 55.9 °F 82% 29.77 in 10.0 mi West 5.8 mph - N/A Rain Light Rain
2:16 PM 61.5 °F 55.9 °F 82% 29.77 in 10.0 mi WNW 5.8 mph - N/A Rain Light Rain
2:35 PM 63.3 °F 55.8 °F 76% 29.76 in 10.0 mi Calm Calm - N/A   Mostly Cloudy
2:36 PM 63.5 °F 55.8 °F 76% 29.76 in 10.0 mi West 3.5 mph - N/A   Mostly Cloudy
2:55 PM 66.4 °F 55.6 °F 68% 29.76 in 10.0 mi West 9.2 mph - N/A   Clear
2:56 PM 66.4 °F 55.4 °F 68% 29.76 in 10.0 mi West 8.1 mph - N/A   Clear
3:15 PM 67.6 °F 54.7 °F 63% 29.76 in 10.0 mi SW 8.1 mph - N/A   Clear
3:35 PM 67.3 °F 53.6 °F 61% 29.75 in 10.0 mi SW 5.8 mph - N/A   Clear
3:36 PM 67.3 °F 54.0 °F 62% 29.75 in 10.0 mi SW 5.8 mph - N/A   Clear
3:55 PM 68.5 °F 54.3 °F 60% 29.75 in 10.0 mi WSW 6.9 mph - N/A   Clear
4:15 PM 70.0 °F 52.2 °F 53% 29.75 in 10.0 mi WSW 5.8 mph - N/A   Clear
4:37 PM 68.9 °F 52.3 °F 55% 29.75 in 10.0 mi WSW 4.6 mph - N/A   Clear
4:56 PM 69.8 °F 54.0 °F 57% 29.75 in 10.0 mi SSW 5.8 mph - N/A   Clear
5:15 PM 70.3 °F 54.0 °F 56% 29.75 in 10.0 mi West 6.9 mph - N/A   Clear
5:35 PM 70.0 °F 52.0 °F 53% 29.75 in 10.0 mi WSW 8.1 mph - N/A   Clear
5:55 PM 69.3 °F 51.3 °F 53% 29.76 in 10.0 mi West 9.2 mph - N/A   Clear
5:56 PM 69.1 °F 51.4 °F 53% 29.76 in 10.0 mi West 9.2 mph - N/A   Clear
6:15 PM 68.5 °F 52.2 °F 56% 29.76 in 10.0 mi West 8.1 mph - N/A   Clear
6:35 PM 67.3 °F 51.6 °F 57% 29.76 in 10.0 mi West 9.2 mph 16.1 mph N/A   Clear
6:36 PM 67.3 °F 51.6 °F 57% 29.76 in 10.0 mi West 9.2 mph 16.1 mph N/A   Clear
6:55 PM 66.2 °F 51.8 °F 60% 29.76 in 10.0 mi WSW 8.1 mph - N/A   Clear
6:56 PM 66.2 °F 51.8 °F 60% 29.76 in 10.0 mi West 8.1 mph - N/A   Clear
7:15 PM 65.5 °F 51.8 °F 61% 29.76 in 10.0 mi West 6.9 mph - N/A   Clear
7:16 PM 65.3 °F 52.0 °F 62% 29.76 in 10.0 mi West 6.9 mph - N/A   Clear
7:35 PM 64.6 °F 52.0 °F 64% 29.77 in 10.0 mi WSW 8.1 mph - N/A   Clear
7:55 PM 63.5 °F 51.6 °F 65% 29.78 in 10.0 mi WSW 4.6 mph - N/A   Clear
8:15 PM 62.6 °F 51.4 °F 67% 29.78 in 10.0 mi WSW 4.6 mph - N/A   Clear
8:16 PM 62.6 °F 51.4 °F 67% 29.78 in 10.0 mi WSW 3.5 mph - N/A   Clear
8:35 PM 61.3 °F 52.7 °F 73% 29.79 in 10.0 mi Calm Calm - N/A   Clear
8:55 PM 60.3 °F 52.7 °F 76% 29.79 in 10.0 mi Calm Calm - N/A   Clear
8:56 PM 60.1 °F 52.7 °F 77% 29.79 in 10.0 mi Calm Calm - N/A   Clear
9:15 PM 58.5 °F 53.2 °F 83% 29.79 in 10.0 mi Calm Calm - N/A   Clear
9:16 PM 58.5 °F 53.2 °F 83% 29.79 in 10.0 mi Calm Calm - N/A   Clear
9:35 PM 57.6 °F 54.7 °F 90% 29.80 in 10.0 mi Calm Calm - N/A   Clear
9:36 PM 57.4 °F 54.7 °F 91% 29.80 in 10.0 mi Calm Calm - N/A   Clear
9:55 PM 55.2 °F 54.7 °F 98% 29.80 in 10.0 mi Calm Calm - N/A   Clear
10:15 PM 55.8 °F 55.0 °F 97% 29.81 in 10.0 mi Calm Calm - N/A   Clear
10:35 PM 54.0 °F 53.4 °F 98% 29.81 in 10.0 mi Calm Calm - N/A   Clear
10:36 PM 53.6 °F 53.1 °F 98% 29.81 in 10.0 mi Calm Calm - N/A   Clear
10:55 PM 54.1 °F 54.1 °F 100% 29.82 in 10.0 mi Calm Calm - N/A   Clear
10:56 PM 54.1 °F 54.1 °F 100% 29.82 in 10.0 mi Calm Calm - N/A   Clear
11:15 PM 53.6 °F 53.6 °F 100% 29.82 in 10.0 mi Calm Calm - N/A   Clear
11:16 PM 53.8 °F 53.8 °F 100% 29.82 in 10.0 mi Calm Calm - N/A   Clear
11:35 PM 52.9 °F 52.9 °F 100% 29.83 in 10.0 mi Calm Calm - N/A   Clear
11:55 PM 52.5 °F 52.5 °F 100% 29.82 in 3.0 mi Calm Calm - N/A   Clear
11:56 PM 52.7 °F 52.7 °F 100% 29.82 in 4.0 mi Calm Calm - N/A   Clear